Location: Nelson
(41.2830°S, 173.2830°E)
Time: 16:01:58
(UTC+13:00)

Meteor 1-26 Rocket - Pass Details

Date: 28 October 2019
Orbit: 817 x 918 km, 81.3° (Epoch: 20 November)

Event Time Altitude Azimuth Distance (km) Brightness Sun altitude
Rises 21:56:09 0° 188° (S) 3,394 8.1 -19.5°
Reaches altitude 10° 21:58:34 10° 186° (S) 2,461 7.2 -19.9°
Maximum altitude 22:04:08 73° 101° (E) 889 4.1 -20.7°
Enters shadow 22:06:13 40° 26° (NNE) 1,238 4.6 -21.0°
